Latest Weather Observations for Katanning RS

IDW60801

Issued at 2:33 pm WST Thursday 23 February 2017 (issued every 30 minutes, with the page automatically refreshed every 10 minutes)

About weather observations | Map of weather stations | Latest weather observations for WA | Other Formats
Station Details ID: 010916 Name: KATANNING Lat: -33.69 Lon: 117.61 Height: 320.0 m
Data from the previous 72 hours. | See also: Recent months at Katanning RS
Date/Time
WST
Temp
°C
App
Temp
°C
Dew
Point
°C
Rel
Hum
%
Delta-T
°C
Wind Press
QNH
hPa
Press
MSL
hPa
Rain since
9am
mm
Dir  Spd
km/h
Gust
km/h
Spd
kts
Gust
kts
23/02:30pm 26.1 24.9 8.1 32 9.8 ENE 4 11 2 6 1022.0 1020.7 0.0
23/02:00pm 25.8 23.7 5.9 28 10.4 NNE 6 15 3 8 1022.5 1021.1 0.0
23/01:30pm 25.7 24.1 8.2 33 9.5 ENE 6 13 3 7 1022.7 1021.3 0.0
23/01:00pm 24.4 22.9 9.2 38 8.3 NNE 7 13 4 7 1023.1 1021.7 0.0
23/12:30pm 24.0 22.7 9.9 41 7.8 NNE 7 13 4 7 1023.3 1021.9 0.0
23/12:00pm 23.8 23.3 10.8 44 7.3 NE 4 11 2 6 1023.4 1022.0 0.0
23/11:30am 22.1 21.2 10.6 48 6.4 ENE 6 11 3 6 1023.6 1022.3 0.0
23/11:00am 22.4 21.5 11.5 50 6.2 ENE 7 11 4 6 1023.9 1022.6 0.0
23/10:30am 21.3 20.8 12.2 56 5.2 ENE 6 9 3 5 1024.3 1023.0 0.0
23/10:00am 20.1 19.5 11.6 58 4.8 E 6 13 3 7 1024.4 1023.1 0.0
23/09:30am 19.2 18.5 12.0 63 4.1 ESE 7 15 4 8 1024.5 1023.2 0.0
23/09:00am 18.5 17.5 12.3 67 3.5 ENE 9 15 5 8 1024.6 1023.3 0.0
23/08:30am 17.2 16.0 11.5 69 3.1 ENE 9 15 5 8 1024.3 1023.0 0.0
23/08:00am 16.7 16.2 12.0 74 2.6 NE 6 11 3 6 1024.2 1022.9 0.0
23/07:30am 15.7 15.0 12.1 79 2.0 NE 7 11 4 6 1024.1 1022.8 0.0
23/07:00am 15.3 14.2 12.1 81 1.8 NE 9 15 5 8 1023.8 1022.5 0.0
23/06:30am 14.6 14.6 12.3 86 1.3 ENE 4 6 2 3 1023.7 1022.4 0.0
23/06:00am 14.4 14.3 12.1 86 1.3 ENE 4 4 2 2 1023.4 1022.0 0.0
23/05:30am 14.4 14.3 12.1 86 1.3 NE 4 6 2 3 1023.1 1021.7 0.0
23/05:00am 14.7 14.4 12.7 88 1.1 ENE 6 6 3 3 1022.8 1021.4 0.0
23/04:30am 14.7 15.2 12.9 89 1.0 ENE 2 4 1 2 1022.7 1021.3 0.0
23/04:00am 14.4 15.2 12.6 89 1.0 CALM 0 0 0 0 1022.6 1021.2 0.0
23/03:30am 14.3 15.1 12.5 89 1.0 CALM 0 2 0 1 1022.5 1021.1 0.0
23/03:00am 14.1 13.6 12.5 90 0.9 ENE 7 11 4 6 1022.3 1020.9 0.0
23/02:30am 14.0 13.0 12.2 89 1.0 ENE 9 15 5 8 1022.0 1020.7 0.0
23/02:00am 14.1 13.1 12.3 89 1.0 ENE 9 15 5 8 1021.8 1020.5 0.0
23/01:30am 14.1 13.0 12.1 88 1.1 E 9 13 5 7 1021.7 1020.4 0.0
23/01:00am 13.8 13.2 11.7 87 1.1 ENE 6 9 3 5 1021.5 1020.2 0.0
23/12:30am 13.6 13.3 11.3 86 1.2 SE 4 6 2 3 1021.6 1020.3 0.0
23/12:00am 14.0 13.7 11.5 85 1.4 ESE 4 6 2 3 1021.6 1020.3 0.0
 
Date/Time
WST
Temp
°C
App
Temp
°C
Dew
Point
°C
Rel
Hum
%
Delta-T
°C
Wind Press
QNH
hPa
Press
MSL
hPa
Rain since
9am
mm
Dir  Spd
km/h
Gust
km/h
Spd
kts
Gust
kts
22/11:30pm 14.3 13.6 11.5 83 1.5 E 6 6 3 3 1021.5 1020.2 0.0
22/11:00pm 15.0 14.3 12.0 82 1.6 ESE 7 9 4 5 1021.5 1020.2 0.0
22/10:30pm 15.6 14.5 12.0 79 2.0 ESE 9 15 5 8 1021.8 1020.5 0.0
22/10:00pm 16.3 14.6 11.2 72 2.8 SSE 11 19 6 10 1022.1 1020.8 0.0
22/09:30pm 16.7 14.7 10.3 66 3.4 SSW 11 13 6 7 1022.0 1020.7 0.0
22/09:00pm 16.4 15.1 10.0 66 3.4 SW 7 9 4 5 1021.9 1020.6 0.0
22/08:30pm 17.0 15.7 9.9 63 3.8 SW 7 9 4 5 1021.7 1020.4 0.0
22/08:00pm 17.5 16.2 9.9 61 4.1 SW 7 9 4 5 1021.4 1020.1 0.0
22/07:30pm 18.6 17.3 9.9 57 4.7 SW 7 9 4 5 1021.1 1019.8 0.0
22/07:00pm 19.5 18.3 9.7 53 5.3 SW 6 7 3 4 1020.7 1019.4 0.0
22/06:30pm 21.1 19.2 9.0 46 6.5 SW 9 13 5 7 1020.2 1018.8 0.0
22/06:00pm 21.9 19.6 9.1 44 6.9 SW 11 19 6 10 1019.9 1018.5 0.0
22/05:30pm 22.3 19.7 9.5 44 7.0 WSW 13 19 7 10 1019.8 1018.4 0.0
22/05:00pm 22.5 20.7 9.3 43 7.2 SW 9 19 5 10 1019.8 1018.4 0.0
22/04:30pm 22.1 19.4 8.9 43 7.1 WSW 13 24 7 13 1019.7 1018.3 0.0
22/04:00pm 21.7 19.9 9.3 45 6.7 WSW 9 17 5 9 1019.8 1018.4 0.0
22/03:30pm 21.5 17.7 9.1 45 6.7 W 19 28 10 15 1020.0 1018.6 0.0
22/03:00pm 21.3 18.5 9.9 48 6.2 SW 15 22 8 12 1020.2 1018.8 0.0
22/02:30pm 21.3 18.0 9.5 47 6.4 SW 17 26 9 14 1020.2 1018.8 0.0
22/02:00pm 20.9 18.0 9.8 49 6.0 WSW 15 24 8 13 1020.4 1019.0 0.0
22/01:30pm 20.0 17.6 9.9 52 5.5 SW 13 26 7 14 1020.6 1019.2 0.0
22/01:00pm 19.3 16.8 9.8 54 5.1 SW 13 22 7 12 1020.9 1019.6 0.0
22/12:30pm 18.2 15.7 9.8 58 4.5 W 13 20 7 11 1021.0 1019.7 0.0
22/12:00pm 17.6 15.8 9.5 59 4.3 W 9 15 5 8 1021.1 1019.8 0.0
22/11:30am 16.7 14.0 9.1 61 4.0 WSW 13 20 7 11 1021.3 1020.0 0.0
22/11:00am 16.4 13.7 8.9 61 3.9 W 13 20 7 11 1021.2 1019.9 0.0
22/10:30am 15.9 12.9 9.1 64 3.6 W 15 20 8 11 1021.2 1019.9 0.0
22/10:00am 15.9 14.0 9.1 64 3.5 WSW 9 17 5 9 1021.2 1019.9 0.0
22/09:30am 15.2 12.9 8.9 66 3.3 WSW 11 19 6 10 1021.3 1020.0 0.0
22/09:00am 14.8 11.7 9.0 68 3.0 SW 15 22 8 12 1021.1 1019.8 0.2
22/08:30am 14.8 12.8 8.7 67 3.1 WSW 9 13 5 7 1020.9 1019.6 0.2
22/08:00am 13.1 11.4 8.2 72 2.5 W 7 11 4 6 1020.9 1019.6 0.2
22/07:30am 12.0 10.1 7.7 75 2.1 WSW 7 13 4 7 1020.7 1019.4 0.2
22/07:00am 11.2 8.9 7.3 77 1.9 WSW 9 13 5 7 1020.3 1018.9 0.2
22/06:30am 9.9 7.5 7.2 83 1.3 W 9 11 5 6 1020.1 1018.7 0.2
22/06:00am 9.1 6.5 6.0 81 1.4 W 9 13 5 7 1019.7 1018.3 0.2
22/05:30am 9.4 6.7 5.8 78 1.7 W 9 11 5 6 1019.5 1018.1 0.2
22/05:00am 10.9 8.5 6.8 76 2.0 WSW 9 13 5 7 1019.4 1018.0 0.2
22/04:30am 10.5 7.6 6.6 77 1.9 WSW 11 17 6 9 1019.0 1017.6 0.2
22/04:00am 10.1 7.6 6.6 79 1.7 WSW 9 15 5 8 1018.5 1017.2 0.2
22/03:30am 9.7 6.7 6.2 79 1.6 W 11 15 6 8 1018.0 1016.7 0.2
22/03:00am 8.9 6.2 5.8 81 1.4 W 9 11 5 6 1017.8 1016.4 0.2
22/02:30am 9.3 6.6 5.7 78 1.7 WSW 9 11 5 6 1017.8 1016.4 0.2
22/02:00am 9.4 6.7 5.6 77 1.8 WSW 9 11 5 6 1017.8 1016.4 0.2
22/01:30am 9.6 6.9 5.6 76 1.9 WSW 9 13 5 7 1018.0 1016.7 0.2
22/01:00am 9.7 7.0 5.5 75 1.9 SW 9 11 5 6 1018.1 1016.8 0.2
22/12:30am 10.1 7.4 5.5 73 2.1 WSW 9 11 5 6 1018.2 1016.9 0.2
22/12:00am 10.1 7.3 5.3 72 2.2 WSW 9 11 5 6 1018.2 1016.9 0.2
 
Date/Time
WST
Temp
°C
App
Temp
°C
Dew
Point
°C
Rel
Hum
%
Delta-T
°C
Wind Press
QNH
hPa
Press
MSL
hPa
Rain since
9am
mm
Dir  Spd
km/h
Gust
km/h
Spd
kts
Gust
kts
21/11:30pm 10.4 7.3 5.4 71 2.3 SW 11 13 6 7 1018.3 1017.0 0.2
21/11:00pm 10.3 7.5 5.3 71 2.3 SW 9 13 5 7 1018.3 1017.0 0.2
21/10:30pm 10.9 8.1 5.2 68 2.7 SW 9 11 5 6 1018.4 1017.1 0.2
21/10:00pm 11.4 8.6 5.1 65 2.9 SW 9 13 5 7 1018.3 1017.0 0.2
21/09:30pm 12.0 8.8 5.0 62 3.3 SW 11 15 6 8 1018.4 1017.1 0.2
21/09:00pm 12.3 9.0 4.8 60 3.5 SW 11 15 6 8 1018.3 1017.0 0.2
21/08:30pm 12.7 9.0 4.7 58 3.7 SW 13 17 7 9 1018.1 1016.8 0.2
21/08:00pm 13.3 9.6 4.2 54 4.2 SW 13 17 7 9 1017.8 1016.4 0.2
21/07:30pm 14.0 9.0 3.8 50 4.7 WSW 19 26 10 14 1017.3 1015.9 0.2
21/07:00pm 14.7 9.3 4.4 50 4.8 SW 22 30 12 16 1016.9 1015.5 0.2
21/06:30pm 15.5 10.4 3.9 46 5.4 SW 20 32 11 17 1016.3 1014.9 0.2
21/06:00pm 16.5 10.7 4.5 45 5.7 SW 24 35 13 19 1015.4 1014.1 0.2
21/05:30pm 16.3 9.9 3.0 41 6.2 SW 26 39 14 21 1014.9 1013.5 0.2
21/05:00pm 17.8 10.8 2.2 35 7.2 WSW 28 37 15 20 1014.3 1012.9 0.2
21/04:30pm 17.0 9.5 3.3 40 6.4 WSW 32 46 17 25 1013.9 1012.5 0.2
21/04:00pm 18.2 10.5 2.1 34 7.4 SW 32 43 17 23 1013.5 1012.1 0.2
21/03:35pm 18.7 11.8 4.8 40 6.8 WSW 30 48 16 26 1013.2 1011.8 0.2
21/03:30pm 18.3 11.1 5.2 42 6.4 SW 32 50 17 27 1013.1 1011.7 0.2
21/03:20pm 17.8 10.5 4.7 42 6.4 WSW 32 50 17 27 1013.2 1011.8 0.2
21/03:00pm 19.4 12.1 4.7 38 7.2 WSW 32 46 17 25 1012.8 1011.4 0.2
21/02:30pm 17.2 10.0 5.8 47 5.6 WSW 33 46 18 25 1013.0 1011.6 0.2
21/02:05pm 15.6 9.3 7.4 58 4.1 W 30 48 16 26 1013.1 1011.7 0.2
21/02:00pm 15.1 7.4 7.2 59 4.0 W 37 52 20 28 1013.1 1011.7 0.2
21/01:30pm 18.5 12.0 6.7 46 6.0 WSW 30 41 16 22 1012.6 1011.2 0.2
21/01:10pm 18.1 10.5 3.9 39 6.8 WSW 33 61 18 33 1012.2 1010.8 0.2
21/01:00pm 18.2 12.1 6.7 47 5.8 WSW 28 44 15 24 1012.5 1011.1 0.2
21/12:45pm 17.1 10.0 5.4 46 5.7 SW 32 50 17 27 1012.5 1011.1 0.2
21/12:30pm 16.4 9.6 6.8 53 4.8 SW 32 46 17 25 1012.5 1011.1 0.2
21/12:23pm 14.8 6.8 7.4 61 3.7 WSW 39 54 21 29 1012.6 1011.2 0.2
21/12:21pm 14.4 5.7 6.0 57 4.1 WSW 41 54 22 29 1012.5 1011.1 0.2
21/12:00pm 16.8 8.8 5.7 48 5.5 WSW 37 50 20 27 1012.0 1010.6 0.2
21/11:30am 15.0 7.4 6.0 55 4.4 WSW 35 48 19 26 1012.5 1011.1 0.2
21/11:14am 16.3 8.7 4.0 44 5.8 WSW 33 54 18 29 1012.1 1010.7 0.2
21/11:00am 17.1 10.2 6.3 49 5.4 WSW 32 48 17 26 1012.0 1010.6 0.2
21/10:36am 15.6 9.6 6.9 56 4.3 WSW 28 48 15 26 1012.1 1010.7 0.2
21/10:30am 15.9 10.9 8.2 60 4.0 WSW 24 41 13 22 1012.2 1010.8 0.2
21/10:06am 12.9 6.6 7.4 69 2.7 SW 30 50 16 27 1012.2 1010.8 0.2
21/10:00am 12.6 5.9 7.5 71 2.5 SW 32 43 17 23 1012.2 1010.8 0.2
21/09:36am 16.0 9.9 6.4 53 4.8 WSW 28 52 15 28 1011.7 1010.3 0.0
21/09:30am 15.6 9.6 6.9 56 4.3 WSW 28 44 15 24 1011.8 1010.4 0.0
21/09:00am 14.7 8.3 7.0 60 3.8 SW 30 43 16 23 1011.6 1010.2 3.6
21/08:40am 14.0 8.1 7.3 64 3.3 SW 28 48 15 26 1011.3 1009.9 3.6
21/08:30am 14.9 10.7 9.9 72 2.6 WSW 22 39 12 21 1011.2 1009.8 3.6
21/08:16am 13.7 8.1 8.7 72 2.6 WSW 28 50 15 27 1011.1 1009.7 3.6
21/08:00am 13.4 8.4 9.5 77 2.0 WSW 26 37 14 20 1010.7 1009.3 3.6
21/07:30am 12.7 8.6 10.2 85 1.3 SW 22 35 12 19 1010.5 1009.1 3.6
21/07:00am 11.2 5.6 8.8 85 1.2 SW 28 50 15 27 1010.0 1008.6 3.6
21/06:40am 12.2 7.3 9.9 86 1.2 SW 26 50 14 27 1009.9 1008.5 3.0
21/06:30am 12.9 8.6 10.6 86 1.2 W 24 39 13 21 1009.6 1008.1 0.6
21/06:00am 13.2 9.5 10.2 82 1.6 W 20 28 11 15 1008.8 1007.4 0.0
21/05:30am 13.9 10.2 9.5 75 2.3 WNW 19 30 10 16 1008.5 1007.1 0.0
21/05:00am 13.6 10.1 8.7 72 2.5 WNW 17 26 9 14 1008.4 1007.0 0.0
21/04:30am 13.5 9.5 8.4 71 2.6 WNW 19 26 10 14 1008.5 1007.1 0.0
21/04:00am 13.4 10.2 8.5 72 2.5 WNW 15 24 8 13 1008.6 1007.2 0.0
21/03:30am 13.7 11.2 8.3 70 2.7 WNW 11 20 6 11 1008.6 1007.2 0.0
21/03:00am 14.3 11.4 8.0 66 3.2 WNW 13 20 7 11 1008.8 1007.4 0.0
21/02:30am 14.4 11.4 7.9 65 3.3 W 13 19 7 10 1009.3 1007.8 0.0
21/02:00am 14.5 10.4 7.8 64 3.4 W 19 26 10 14 1009.7 1008.2 0.0
21/01:30am 14.8 11.2 8.5 66 3.2 WSW 17 24 9 13 1010.0 1008.6 0.0
21/01:00am 15.6 12.2 10.4 71 2.8 WSW 19 28 10 15 1010.3 1008.9 0.0
21/12:30am 15.6 13.1 11.2 75 2.4 WSW 15 22 8 12 1010.4 1009.0 0.0
21/12:00am 15.6 14.2 12.2 80 1.9 SW 11 17 6 9 1010.8 1009.4 0.0
 
Date/Time
WST
Temp
°C
App
Temp
°C
Dew
Point
°C
Rel
Hum
%
Delta-T
°C
Wind Press
QNH
hPa
Press
MSL
hPa
Rain since
9am
mm
Dir  Spd
km/h
Gust
km/h
Spd
kts
Gust
kts
20/11:30pm 15.9 15.0 12.6 81 1.8 SSW 9 13 5 7 1010.8 1009.4 0.0
20/11:00pm 15.9 15.0 12.6 81 1.8 SW 9 13 5 7 1011.4 1010.0 0.0
20/10:30pm 15.8 15.3 12.7 82 1.7 SSE 7 9 4 5 1011.2 1009.8 0.0
20/10:00pm 16.1 14.9 12.8 81 1.9 S 11 19 6 10 1011.8 1010.4 0.0
20/09:30pm 16.6 14.1 12.4 76 2.4 S 17 24 9 13 1012.1 1010.7 0.0
20/09:00pm 17.0 14.2 12.5 75 2.5 SSW 19 28 10 15 1012.2 1010.8 0.0
20/08:30pm 17.4 14.6 12.5 73 2.8 S 19 33 10 18 1011.2 1009.8 0.0
20/08:00pm 18.5 16.6 12.9 70 3.2 S 15 22 8 12 1010.5 1009.1 0.0
20/07:30pm 19.7 15.5 12.5 63 4.1 S 26 37 14 20 1010.1 1008.7 0.0
20/07:00pm 23.6 21.7 7.7 36 8.5 WSW 7 13 4 7 1009.3 1007.8 0.0
20/06:30pm 25.4 22.6 7.1 31 9.8 W 11 17 6 9 1008.7 1007.3 0.0
20/06:00pm 26.5 23.3 7.0 29 10.5 W 13 20 7 11 1008.4 1007.0 0.0
20/05:30pm 26.8 22.9 7.3 29 10.5 W 17 28 9 15 1008.5 1007.1 0.0
20/05:00pm 26.8 22.9 7.3 29 10.5 WSW 17 24 9 13 1008.6 1007.2 0.0
20/04:30pm 27.3 24.2 7.2 28 10.8 W 13 19 7 10 1008.9 1007.5 0.0
20/04:00pm 27.4 24.4 7.8 29 10.7 WNW 13 20 7 11 1009.3 1007.8 0.0
20/03:30pm 27.2 24.4 8.6 31 10.3 WNW 13 20 7 11 1009.6 1008.1 0.0
20/03:00pm 27.1 24.8 9.0 32 10.1 WNW 11 17 6 9 1009.9 1008.5 0.0

Other Formats:

Comma delimited format used in spreadsheet applications
http://www.bom.gov.au/fwo/IDW60801/IDW60801.94641.axf

JavaScript Object Notation format (JSON) in row-major order
http://www.bom.gov.au/fwo/IDW60801/IDW60801.94641.json